Find Kosmos-796

NORAD ID: 8612 Int'l Des: 1976-008 Owner: GUKOSR Country: SU operational
LEOCIRCULAR

Live Position

Loading 3D Globe...

About Kosmos-796

Description loading...

Upcoming Passes

Passes for default location (London). Set your location on the main map for personalized predictions.

Altitude History

Loading altitude history...

Two-Line Element Set

1 8612U 76008F 26105.53781338 -.00000025 00000-0 -69789-4 0 9992
2 8612 74.0578 35.2229 0028068 305.0804 229.2361 12.43167700278752
Epoch: Apr 15, 2026 • Age: 11 hours

Current Status

Altitude 1524.6 km
Velocity 7.10 km/s
Sub-Earth Point 73.62°N, 65.71°W
Type other

Most Searched